User: anonymous   Login
Location: Unspecified
(0.0000°N, 0.0000°E)
Time: 10:15:13
(UTC+00:00)
Language:

Eole - Orbit

View from above orbital plane
View from above orbital plane
View from above satellite
View from above satellite

Ground track
Ground track

The orbit data is extracted from the following two-line orbital elements,

1  5435U 71071A   19047.44147531 -.00000134  00000-0  14666-4 0  9999
2  5435  50.1417  43.1132 0110366 158.0450 202.5260 14.55161862506312
Epoch (UTC): 16 February 2019 10:35:43
Eccentricity: 0.0110366
inclination: 50.1417°
perigee height: 630 km
apogee height: 787 km
right ascension of ascending node: 43.1132°
argument of perigee: 158.0450°
revolutions per day: 14.55161862
mean anomaly at epoch: 202.5260°
orbit number at epoch: 50631

The dashed part of the orbit path shows where the satellite is in the earth's shadow,  

DLR